GW3529 Weather Reports


time (UTC)temp
F
wind
direction
speed
knots
gust
knots
rain 1hr
in
rain 24hr
in
rain mn
in
humidity
%
barometer
mb
20260506150104 45 344 1.7 14.8 0.00 0.00 0.00 33 1020.3
20260506144611 44 316 7.8 15.6 0.00 0.01 0.00 34 1020.5
20260506143056 43 329 7.0 15.6 0.00 0.01 0.00 35 1020.5
20260506141553 43 334 3.5 13.0 0.00 0.01 0.00 37 1020.4
20260506140105 42 344 5.2 13.0 0.00 0.01 0.00 38 1020.6
20260506134546 41 302 0.9 11.3 0.00 0.01 0.00 41 1020.7
20260506133051 39 338 2.6 9.6 0.00 0.01 0.00 46 1020.6
20260506131544 34 300 0.0 0.9 0.00 0.01 0.00 54 1020.7
20260506130039 32 302 0.0 0.0 0.00 0.01 0.00 57 1020.6
20260506124529 31 257 0.0 0.9 0.00 0.01 0.00 58 1020.5
20260506123036 30 254 0.0 0.0 0.00 0.01 0.00 60 1020.4
20260506121523 29 212 0.0 0.0 0.00 0.01 0.00 60 1020.4
20260506120030 29 195 0.0 0.0 0.00 0.01 0.00 61 1020.4
20260506114620 28 191 0.0 0.0 0.00 0.01 0.00 61 1020.4
20260506113053 29 192 0.0 0.0 0.00 0.01 0.00 60 1020.2
20260506111548 29 192 0.0 0.0 0.00 0.01 0.00 60 1020.0
20260506110048 29 192 0.0 0.0 0.00 0.01 0.00 60 1020.0
20260506104555 29 193 0.0 0.0 0.00 0.01 0.00 59 1019.9
20260506103045 29 194 0.0 0.0 0.00 0.01 0.00 59 1020.0
20260506101543 30 194 0.0 0.0 0.00 0.01 0.00 56 1019.9
20260506100053 31 194 0.0 0.0 0.00 0.01 0.00 57 1019.7
20260506094543 30 194 0.0 0.0 0.00 0.01 0.00 58 1019.7
20260506093039 30 194 0.0 0.0 0.00 0.01 0.00 57 1019.7
20260506091539 30 194 0.0 0.0 0.00 0.01 0.00 58 1019.8
20260506090040 31 194 0.0 0.0 0.00 0.01 0.00 54 1019.6
20260506084538 31 194 0.0 0.0 0.00 0.01 0.00 56 1019.6
20260506083034 31 194 0.0 0.0 0.00 0.01 0.00 55 1019.5
20260506081531 31 240 0.0 0.0 0.00 0.01 0.00 55 1019.4
20260506073028 32 298 0.0 0.0 0.00 0.01 0.00 55 1019.4
20260506071527 32 298 0.0 0.0 0.00 0.01 0.00 55 1019.4
20260506061518 34 298 0.0 0.0 0.00 0.01 0.00 54 1019.2
20260506044510 37 346 0.0 4.3 0.00 0.02 0.01 48 1018.8
20260506043009 38 344 0.9 8.7 0.00 0.02 0.01 48 1018.8
20260506041509 38 355 0.0 7.0 0.00 0.02 0.01 48 1018.7
20260506040007 39 347 0.0 7.0 0.00 0.02 0.01 47 1018.6
20260506034507 39 325 0.0 10.4 0.00 0.02 0.01 47 1018.5
20260506033005 39 329 0.0 8.7 0.00 0.02 0.01 47 1018.5
20260506031503 39 344 0.9 14.8 0.00 0.02 0.01 46 1018.3
20260506030004 40 351 0.0 13.9 0.00 0.02 0.01 46 1018.1
20260506024602 40 345 0.0 3.5 0.00 0.02 0.01 45 1017.8
20260506023104 40 327 9.6 16.5 0.00 0.02 0.01 44 1017.5
20260506021555 40 331 1.7 13.9 0.00 0.02 0.01 46 1017.1
20260506020056 41 331 4.3 15.6 0.00 0.02 0.01 44 1016.8
20260506014552 41 360 6.1 15.6 0.00 0.02 0.01 45 1016.5
20260506013103 41 346 2.6 13.9 0.00 0.02 0.01 44 1016.2
20260506011547 42 341 5.2 13.0 0.00 0.02 0.01 47 1016.1
20260506010058 42 318 9.6 14.8 0.00 0.02 0.01 47 1015.9
20260506004544 42 333 3.5 13.9 0.00 0.02 0.01 48 1015.7
20260506003043 43 327 9.6 17.4 0.00 0.02 0.01 46 1015.5
20260506001548 44 323 10.4 18.2 0.00 0.02 0.01 45 1015.3
20260506000041 44 319 14.8 20.9 0.00 0.02 0.01 47 1015.3
20260505234541 44 331 13.9 18.2 0.00 0.02 0.01 48 1015.3
20260505233047 43 342 6.1 20.0 0.00 0.02 0.01 51 1015.3
20260505231540 44 355 13.9 21.7 0.00 0.02 0.01 50 1014.9
20260505230046 44 343 12.2 22.6 0.00 0.02 0.01 51 1014.9
20260505224543 43 355 9.6 24.3 0.00 0.02 0.01 56 1014.8
20260505223041 42 10 11.3 27.8 0.00 0.02 0.01 56 1014.9
20260505221537 45 346 14.8 24.3 0.00 0.02 0.01 47 1014.7
20260505220036 44 5 15.6 20.9 0.00 0.02 0.01 48 1014.4
20260505214538 46 9 16.5 23.5 0.00 0.02 0.01 43 1014.3
20260505213034 45 5 16.5 23.5 0.00 0.02 0.01 43 1014.5
20260505211535 45 345 11.3 21.7 0.00 0.02 0.01 42 1014.5
20260505210038 46 341 13.9 25.2 0.00 0.02 0.01 41 1014.4
20260505204635 45 340 11.3 22.6 0.00 0.02 0.01 42 1014.7
20260505203038 45 350 7.8 21.7 0.00 0.02 0.01 44 1014.6
20260505201547 46 344 12.2 26.1 0.00 0.02 0.01 42 1014.5
20260505200034 45 5 16.5 26.1 0.00 0.02 0.01 42 1014.4
20260505194535 45 355 15.6 25.2 0.00 0.02 0.01 41 1014.5
20260505193030 47 337 5.2 22.6 0.00 0.02 0.01 38 1014.5
20260505191532 47 5 13.9 21.7 0.00 0.02 0.01 40 1014.3
20260505190035 46 334 10.4 20.9 0.00 0.02 0.01 36 1014.4
20260505184528 45 345 13.0 24.3 0.00 0.02 0.01 40 1014.6
20260505183031 45 13 12.2 22.6 0.00 0.02 0.01 42 1014.6
20260505181532 46 360 13.9 22.6 0.00 0.02 0.01 43 1014.6
20260505180025 44 355 16.5 23.5 0.00 0.02 0.01 41 1014.8
20260505174525 44 360 14.8 23.5 0.00 0.02 0.01 40 1014.9
20260505173036 45 338 13.9 23.5 0.00 0.02 0.01 41 1014.8
20260505171533 46 319 17.4 26.9 0.00 0.02 0.01 37 1014.8
20260505170019 45 341 18.2 24.3 0.00 0.02 0.01 37 1015.0
20260505164515 44 360 15.6 25.2 0.00 0.02 0.01 40 1015.0
20260505163010 43 325 11.3 22.6 0.00 0.02 0.01 42 1015.0
20260505161507 43 344 10.4 22.6 0.00 0.02 0.01 41 1015.1
20260505153003 41 327 13.9 20.0 0.00 0.02 0.01 44 1015.3
20260505151501 40 360 11.3 20.9 0.01 0.02 0.01 50 1015.3